COSMOS 2533

Last updated on Thu Nov 21 2024 00:02:44 GMT+0000 (Coordinated Universal Time)

1 43867U 18107A 24324.45150705 -.00000036 00000+0 00000+0 0 9995 2 43867 0.0405 95.3897 0001044 174.7759 21.3497 1.00268804 21670
UTC large
Height (km)
Speed (km/s)
/
Latitude / Longitude
Inclination (degrees)
Orbital Period (minutes)
Azimuth
Elevation
Range (km)
Doppler Factor

Next 0 passes for location: London (51.5072 / 0.1276)

Sorry there are no passes over London.